{"data":{"norad_id":64669,"intl_designator":"2025-139F","name":"STARLINK-34394","alt_names":[],"object_type":"PAYLOAD","status":"ACTIVE","operator":null,"country":"US","launch_date":"2025-06-28","launch_site_code":"AFETR","launch_vehicle":null,"mission":null,"orbit_class":"UNKNOWN","rcs_meters":null,"size_class":null,"mass_kg":null,"dimensions":null,"purposes":["comms"],"wikipedia_slug":null,"has_3d_model":false,"image_url":null,"decayed_at":null,"tle_current":{"epoch":"2026-05-25T05:26:59.960832Z","epoch_age_seconds":55466,"freshness":"FRESH","line1":"1 64669U 25139F   26145.22708288  .00027328  00000+0  81700-3 0  9996","line2":"2 64669  53.1596 130.7329 0000758  76.0952 284.0135 15.34400153 52013","mean_motion":15.34400153,"eccentricity":7.58e-5,"inclination_deg":53.1596,"raan_deg":130.7329,"arg_perigee_deg":76.0952,"mean_anomaly_deg":284.0135,"bstar":0.000817,"rev_number":5201,"period_min":93.847748723471,"perigee_km":462.18424980316,"apogee_km":463.22132111464,"semimajor_km":6840.8397854589,"source":"CELESTRAK","updated_at":"2026-05-25T13:38:20.502189Z"}}}